Weather in Prechistoye

Russia / Smolensk Oblast     55°39′03″N   34°56′13″E
temp.,
°C
wind,
m/s
gust,
m/s
humid.,
%
clouds,
%
prec.,
mm/h
press.,
hPa
HPBL,
m
9 may, sun
sun900:00+4nw61290100 0.7 1007828
03:00+3nw51188100 0.8 1009854
06:00+2nw51291100 0.0 1011792
09:00+3nw61084100 0.1 10141024
12:00+7nnw6105996 0.0 10151549
15:00+11nnw5944100 0.1 10162330
18:00+10nw595059 0.0 10181813
21:00+4nw37711 0.0 1022112
10 may, mon
mon1000:00+2nw37731 0.0 1024113
03:00+1nnw25745 0.0 102671
06:00+2n12735 0.0 102839
09:00+9n12525 0.0 1029502
12:00+13n23383 0.0 10281444
15:00+14n23351 0.0 10271661
18:00+13ne23503 0.0 1028771
21:00+7ene22651 0.0 102911
11 may, tue
tue1100:00+5e22732 0.0 102921
03:00+4ne22775 0.0 103018
06:00+5ene26785 0.0 1030127
09:00+11ene47521 0.0 1029573
12:00+15ene56425 0.0 1028965
15:00+18ene454373 0.0 10271057
18:00+17ene36597 0.0 1026666
21:00+11ene36870 0.0 1027102
12 may, wed
wed1200:00+10ene389483 0.0 1026142
03:00+9ene379681 0.0 1025125
06:00+10ene279714 0.0 1025199
09:00+15ene497899 0.0 1023681
12:00+12sse4788100 0.3 1023716
15:00+11ese248572 0.5 1023365
18:00+14ese3774100 0.0 1022899
21:00+11ene3997100 0.3 1021376
13 may, thu
thu1300:00+11ese3998100 0.5 1020516
03:00+10ese399453 0.5 1019347
06:00+10ese51395100 0.0 1019599
09:00+11se51290100 0.1 1019841
12:00+14se6117547 0.0 10191034
15:00+18sse6106375 0.3 10181615
18:00+16sse487688 0.8 1017822
21:00+12ese2293100 0.9 101739